Regional Weather Roundup
Issued by NWS Sterling, VA

Home | Current Version | Previous Version | Graphics & Text | Print | Product List | Glossary On
Versions: 1 2 3 4 5 6 7 8 9 10 11 12 13 14 15 16 17 18 19 20 21 22 23 24 25 26 27 28 29 30 31 32 33 34 35 36 37 38 39 40 41 42 43 44 45 46 47 48 49 50
000
ASUS41 KLWX 251610
RWRLWX

REGIONAL WEATHER ROUNDUP
NATIONAL WEATHER SERVICE BALTIMORE MD/WASHINGTON DC
1200 PM EDT MON MAY 25 2015

Note: "FAIR" indicates few or no clouds below 12,000 feet
with no significant weather and/or obstructions to visibility.
 TC=TEMPERATURE CELSIUS

 * =Non NWS site. Station does not report precipitation (e.g. rain,
    snow, etc.), thunder, or fog.

DCZ001-MDZ009-015-VAZ040>042-051-053>054-251700-
WASHINGTON METRO

CITY           SKY/WX    TMP DP  RH WIND       PRES   REMARKS
WASHINGTON NAT PTSUNNY   83  62  49 S13       30.27F
DULLES         MOSUNNY   80  59  48 SW16G24   30.26F
ANDREWS AFB    SUNNY     80  61  52 S12G23    30.27F
FT BELVOIR     SUNNY     81  61  50 SE13G18   30.27F
QUANTICO       SUNNY     81  57  43 SW9G23    30.28F
COLLEGE PARK*  SUNNY     79  59  50 S7        30.27S
LEESBURG*      SUNNY     81  63  54 S13G23    30.26F
MANASSAS*      SUNNY     81  61  50 SW15G23   30.26F
GAITHERSBURG*  SUNNY     81  61  50 SW9       30.29F

$$

MDZ006>007-011-014-251700-
BALTIMORE METRO

CITY           SKY/WX    TMP DP  RH WIND       PRES   REMARKS
BWI AIRPORT    MOSUNNY   80  58  46 SW12G22   30.25F
MD SCIENCE CTR   N/A     82  58  43 MISG      30.25F
MARTIN STATE   MOSUNNY   79  66  65 SE10      30.28F
ANNAPOLIS      SUNNY     80  59  48 SW9G17    30.27S
FORT MEADE*    SUNNY     79  59  50 SW14G21   30.29S

$$

MDZ012-015-019>023-251700-
MARYLAND EASTERN SHORE

CITY           SKY/WX    TMP DP  RH WIND       PRES   REMARKS
OCEAN CITY     SUNNY     71  62  73 S9        30.32F
SALISBURY      SUNNY     78  58  49 SW15G21   30.32S
BAY BRIDGE AP*   N/A    N/A N/A N/A S8        30.28S
CAMBRIDGE*     SUNNY     79  57  47 S9        30.31R
EASTON*        SUNNY     81  61  50 SW12G23   30.33S

$$

MDZ017>025-251700-
SOUTHERN MARYLAND

CITY           SKY/WX    TMP DP  RH WIND       PRES   REMARKS
PATUXENT RIVER SUNNY     80  57  45 W15       30.30F
ST INIGOES     SUNNY     79  58  48 SW13      30.30F
LEONARDTOWN*   SUNNY     77  57  50 SW10G18   30.32S

$$

MDZ003>005-251700-
NORTH CENTRAL MARYLAND

CITY           SKY/WX    TMP DP  RH WIND       PRES   REMARKS
FREDERICK*     SUNNY     79  63  57 SW10      30.27F
HAGERSTOWN APT SUNNY     79  56  45 SW8       30.22F
WESTMINSTER*   SUNNY     82  59  44 S9G16     30.25F

$$

MDZ501>502-251700-
WESTERN MARYLAND

CITY           SKY/WX    TMP DP  RH WIND       PRES   REMARKS
OAKLAND*       SUNNY     72  55  56 W7        30.30F
CUMBERLAND*    SUNNY     81  54  39 SE7       30.25F

$$

VAZ025>031-251700-
SHENANDOAH VALLEY

CITY           SKY/WX    TMP DP  RH WIND       PRES   REMARKS
WINCHESTER*    SUNNY     81  50  34 S10       30.24F
FRONT ROYAL*   FAIR      79  59  50 S8G18     30.24F
LURAY*         FAIR      81  59  47 SW10G18   30.26F
NEW MARKET*    FAIR      78  57  47 SW14G22   30.24F
STAUNTON*      SUNNY     79  56  44 SW14      30.30S
WAYNESBORO*    FAIR      76  58  53 S3        30.30S

$$

WVZ021-048>050-054>055-251700-
EASTERN WEST VIRGINIA PANHANDLE

CITY           SKY/WX    TMP DP  RH WIND       PRES   REMARKS
MARTINSBURG    SUNNY     80  58  46 S10       30.23F
PETERSBURG*    SUNNY     81  54  38 S6        30.23F

$$

VAZ036>039-050-251700-
CENTRAL FOOTHILLS

CITY           SKY/WX    TMP DP  RH WIND       PRES   REMARKS
CHARLOTTESVILL MOSUNNY   79  58  48 S17       30.28F
CULPEPER*      SUNNY     79  60  51 SW12G21   30.27F
ORANGE*        SUNNY     81  59  47 S13G21    30.29F
GORDONSVILLE*  FAIR      78  59  51 SW17G24   30.28F
WARRENTON*     FAIR      81  63  52 SW15G23   30.26F

$$

VAZ055>057-251700-
NORTH AND CENTRAL PIEDMONT

CITY           SKY/WX    TMP DP  RH WIND       PRES   REMARKS
FREDERICKSBRG* SUNNY     82  60  48 SW15      30.28F
STAFFORD*      SUNNY     80  56  44 SW9G17    30.32F

$$

NCZ024-NYZ072-PAZ021-071-VAZ022-071-251700-
OTHER REGIONAL OBSERVATIONS

CITY           SKY/WX    TMP DP  RH WIND       PRES   REMARKS
NEW YORK CITY  SUNNY     82  57  42 S5        30.26F
PHILADELPHIA   MOSUNNY   82  57  42 SW14      30.25F
PITTSBURGH     PTSUNNY   80  56  43 SW9       30.18F
ROANOKE        PTSUNNY   78  58  49 S8G17     30.32F
RICHMOND       MOSUNNY   80  57  45 SW8G20    30.31F
RALEIGH        MOSUNNY   78  57  48 S10G17    30.34F

$$

ANZ530>537-251700-
MARINE OBSERVATIONS

STATION/POSITION TIME  TEMP    WIND        PRES
                       AIR SEA DIR/SP/G
                 (UTC) (F)     (DEG/KT/KT) (MB)
THOMAS PT LIGHT  1600   71 66  160/ 13/ 15 1025.6F
BALT KEY BRIDGE  1500   74     150/  4/  5 1024.8F
LEWISETTA        1500   75 71              1026.2F
SOLOMONS ISLAND  1500      69                N/A
PINEY POINT      1500          250/  4/  7   N/A

$$



USA.gov is the U.S. government's official web portal to all federal, state and local government web resources and services.